Time,TemperatureF,DewpointF,PressureIn,WindDirection,WindDirectionDegrees,WindSpeedMPH,WindSpeedGustMPH,Humidity,HourlyPrecipIn,Conditions,Clouds,dailyrainin,SoftwareType,DateUTC
2013-11-12 00:00:00,29.0,27.5,30.37,NNW,340,0.0,0.0,94,0.00,,,0.00,VWS V14.01,2013-11-12 05:00:00,
2013-11-12 00:01:00,29.0,27.5,30.37,NW,323,0.0,1.0,94,0.00,,,0.00,VWS V14.01,2013-11-12 05:01:00,
2013-11-12 00:02:00,29.0,27.5,30.37,NNW,340,0.0,1.0,94,0.00,,,0.00,VWS V14.01,2013-11-12 05:02:00,
2013-11-12 00:07:00,29.0,27.5,30.37,NNE,33,4.0,4.0,94,0.00,,,0.00,VWS V14.01,2013-11-12 05:07:00,
2013-11-12 00:13:00,29.2,28.0,30.38,NW,314,0.0,4.0,93,0.00,,,0.00,weatherlink.com 1.10,2013-11-12 05:13:00,
2013-11-12 00:21:00,29.0,27.2,30.38,North,1,0.0,0.0,93,0.00,,,0.00,VWS V14.01,2013-11-12 05:21:00,
2013-11-12 00:27:00,29.0,27.0,30.39,NE,41,2.0,2.0,92,0.00,,,0.00,weatherlink.com 1.10,2013-11-12 05:27:00,
2013-11-12 00:35:00,28.9,26.3,30.39,NNW,342,0.0,0.0,90,0.00,,,0.00,VWS V14.01,2013-11-12 05:35:00,
2013-11-12 00:40:00,28.9,25.8,30.39,NW,325,1.0,1.0,88,0.00,,,0.00,VWS V14.01,2013-11-12 05:40:00,
2013-11-12 00:48:00,28.9,25.8,30.40,North,10,0.0,0.0,88,0.00,,,0.00,VWS V14.01,2013-11-12 05:48:00,
2013-11-12 00:53:00,28.8,25.7,30.40,NNW,341,0.0,1.0,88,0.00,,,0.00,VWS V14.01,2013-11-12 05:53:00,
2013-11-12 00:58:00,28.8,25.7,30.40,NW,324,0.0,2.0,88,0.00,,,0.00,VWS V14.01,2013-11-12 05:58:00,
2013-11-12 01:04:00,28.8,25.7,30.40,North,9,1.0,1.0,88,0.00,,,0.00,VWS V14.01,2013-11-12 06:04:00,
2013-11-12 01:11:00,28.9,25.5,30.41,NNW,344,0.0,0.0,87,0.00,,,0.00,VWS V14.01,2013-11-12 06:11:00,
2013-11-12 01:16:00,28.8,25.4,30.41,North,9,0.0,1.0,87,0.00,,,0.00,VWS V14.01,2013-11-12 06:16:00,
2013-11-12 01:21:00,28.9,25.2,30.41,NE,42,0.0,3.0,86,0.00,,,0.00,VWS V14.01,2013-11-12 06:21:00,
2013-11-12 01:26:00,28.8,25.1,30.41,North,352,0.0,1.0,86,0.00,,,0.00,VWS V14.01,2013-11-12 06:26:00,
2013-11-12 01:31:00,28.9,25.2,30.41,NW,326,0.0,2.0,86,0.00,,,0.00,VWS V14.01,2013-11-12 06:31:00,
2013-11-12 01:36:00,28.9,25.0,30.41,North,353,0.0,4.0,85,0.00,,,0.00,VWS V14.01,2013-11-12 06:36:00,
2013-11-12 01:41:00,28.8,24.6,30.41,NE,46,1.0,1.0,84,0.00,,,0.00,VWS V14.01,2013-11-12 06:41:00,
2013-11-12 01:46:00,28.8,24.9,30.41,NNW,345,0.0,2.0,85,0.00,,,0.00,VWS V14.01,2013-11-12 06:46:00,
2013-11-12 01:51:00,28.8,24.9,30.41,North,1,0.0,2.0,85,0.00,,,0.00,VWS V14.01,2013-11-12 06:51:00,
2013-11-12 01:58:00,28.7,24.8,30.41,NNW,343,1.0,1.0,85,0.00,,,0.00,VWS V14.01,2013-11-12 06:58:00,
2013-11-12 02:04:00,28.7,25.0,30.42,NE,39,1.0,1.0,86,0.00,,,0.00,weatherlink.com 1.10,2013-11-12 07:04:00,
2013-11-12 02:09:00,28.8,24.6,30.42,NW,326,1.0,5.0,84,0.00,,,0.00,VWS V14.01,2013-11-12 07:09:00,
2013-11-12 02:14:00,28.7,24.2,30.42,North,349,1.0,5.0,83,0.00,,,0.00,VWS V14.01,2013-11-12 07:14:00,
2013-11-12 02:19:00,28.8,24.3,30.42,NW,325,0.0,5.0,83,0.00,,,0.00,VWS V14.01,2013-11-12 07:19:00,
2013-11-12 02:24:00,28.7,23.6,30.42,NNW,342,0.0,6.0,81,0.00,,,0.00,VWS V14.01,2013-11-12 07:24:00,
2013-11-12 02:29:00,28.7,23.6,30.42,North,358,1.0,4.0,81,0.00,,,0.00,VWS V14.01,2013-11-12 07:29:00,
2013-11-12 02:36:00,28.6,23.5,30.42,North,355,0.0,0.0,81,0.00,,,0.00,VWS V14.01,2013-11-12 07:36:00,
2013-11-12 02:41:00,28.3,23.5,30.43,NNE,26,1.0,1.0,82,0.00,,,0.00,VWS V14.01,2013-11-12 07:41:00,
2013-11-12 02:46:00,28.3,23.5,30.43,NNW,348,0.0,1.0,82,0.00,,,0.00,VWS V14.01,2013-11-12 07:46:00,
2013-11-12 02:55:00,28.2,23.0,30.43,NNW,338,0.0,2.0,81,0.00,,,0.00,weatherlink.com 1.10,2013-11-12 07:55:00,
2013-11-12 03:00:00,28.2,23.1,30.43,NNW,339,0.0,0.0,81,0.00,,,0.00,VWS V14.01,2013-11-12 08:00:00,
2013-11-12 03:09:00,28.1,23.0,30.44,NNW,347,2.0,4.0,81,0.00,,,0.00,weatherlink.com 1.10,2013-11-12 08:09:00,
2013-11-12 03:18:00,28.2,23.1,30.44,NW,320,0.0,0.0,81,0.00,,,0.00,VWS V14.01,2013-11-12 08:18:00,
2013-11-12 03:26:00,28.1,23.0,30.45,North,352,0.0,0.0,81,0.00,,,0.00,weatherlink.com 1.10,2013-11-12 08:26:00,
2013-11-12 03:31:00,28.0,22.9,30.45,North,8,1.0,1.0,81,0.00,,,0.00,VWS V14.01,2013-11-12 08:31:00,
2013-11-12 03:36:00,27.8,22.4,30.45,NNE,20,0.0,1.0,80,0.00,,,0.00,VWS V14.01,2013-11-12 08:36:00,
2013-11-12 03:41:00,27.7,22.4,30.45,NNW,336,0.0,1.0,80,0.00,,,0.00,VWS V14.01,2013-11-12 08:41:00,
2013-11-12 03:46:00,27.6,22.2,30.45,NNW,330,0.0,2.0,80,0.00,,,0.00,VWS V14.01,2013-11-12 08:46:00,
2013-11-12 03:51:00,27.4,22.4,30.46,NNW,335,0.0,2.0,81,0.00,,,0.00,VWS V14.01,2013-11-12 08:51:00,
2013-11-12 03:59:00,27.3,22.2,30.45,North,11,0.0,0.0,81,0.00,,,0.00,VWS V14.01,2013-11-12 08:59:00,
2013-11-12 04:00:00,27.3,22.2,30.46,NNW,344,0.0,2.0,81,0.00,,,0.00,VWS V14.01,2013-11-12 09:00:00,
2013-11-12 04:04:00,27.3,22.5,30.46,North,3,0.0,0.0,82,0.00,,,0.00,VWS V14.01,2013-11-12 09:04:00,
2013-11-12 04:09:00,27.2,22.4,30.46,NNW,338,0.0,0.0,82,0.00,,,0.00,VWS V14.01,2013-11-12 09:09:00,
2013-11-12 04:14:00,27.2,23.0,30.47,NNE,18,0.0,0.0,83,0.00,,,0.00,weatherlink.com 1.10,2013-11-12 09:14:00,
2013-11-12 04:21:00,27.3,22.8,30.47,NNE,27,0.0,0.0,83,0.00,,,0.00,VWS V14.01,2013-11-12 09:21:00,
2013-11-12 04:26:00,27.6,23.1,30.47,ENE,70,4.0,4.0,83,0.00,,,0.00,VWS V14.01,2013-11-12 09:26:00,
2013-11-12 04:33:00,27.8,22.0,30.48,NNE,30,2.0,5.0,80,0.00,,,0.00,weatherlink.com 1.10,2013-11-12 09:33:00,
2013-11-12 04:38:00,27.8,22.4,30.48,NE,44,1.0,3.0,80,0.00,,,0.00,VWS V14.01,2013-11-12 09:38:00,
2013-11-12 04:45:00,27.7,22.4,30.48,NNE,31,3.0,3.0,80,0.00,,,0.00,VWS V14.01,2013-11-12 09:45:00,
2013-11-12 04:50:00,27.3,22.2,30.49,NNE,16,0.0,3.0,81,0.00,,,0.00,VWS V14.01,2013-11-12 09:50:00,
2013-11-12 04:55:00,27.1,22.1,30.49,North,3,0.0,3.0,81,0.00,,,0.00,VWS V14.01,2013-11-12 09:55:00,
2013-11-12 05:00:00,26.9,21.9,30.49,North,349,1.0,5.0,81,0.00,,,0.00,VWS V14.01,2013-11-12 10:00:00,
2013-11-12 05:05:00,26.9,22.0,30.49,NNW,343,0.0,5.0,81,0.00,,,0.00,weatherlink.com 1.10,2013-11-12 10:05:00,
2013-11-12 05:10:00,26.8,21.8,30.50,NNE,23,1.0,1.0,81,0.00,,,0.00,VWS V14.01,2013-11-12 10:10:00,
2013-11-12 05:15:00,26.6,21.6,30.50,NNE,23,0.0,0.0,81,0.00,,,0.00,VWS V14.01,2013-11-12 10:15:00,
2013-11-12 05:21:00,26.3,21.0,30.50,North,356,0.0,2.0,81,0.00,,,0.00,weatherlink.com 1.10,2013-11-12 10:21:00,
2013-11-12 05:29:00,25.9,21.2,30.50,North,9,0.0,0.0,82,0.00,,,0.00,VWS V14.01,2013-11-12 10:29:00,
2013-11-12 05:34:00,25.7,21.0,30.50,West,267,0.0,0.0,82,0.00,,,0.00,VWS V14.01,2013-11-12 10:34:00,
2013-11-12 05:39:00,25.5,21.1,30.51,North,356,0.0,0.0,83,0.00,,,0.00,VWS V14.01,2013-11-12 10:39:00,
2013-11-12 05:45:00,25.4,21.0,30.51,North,355,0.0,0.0,83,0.00,,,0.00,VWS V14.01,2013-11-12 10:45:00,
2013-11-12 05:50:00,25.0,20.9,30.51,North,354,0.0,0.0,84,0.00,,,0.00,VWS V14.01,2013-11-12 10:50:00,
2013-11-12 05:56:00,24.9,21.0,30.51,NNW,334,0.0,0.0,84,0.00,,,0.00,weatherlink.com 1.10,2013-11-12 10:56:00,
2013-11-12 06:01:00,24.8,20.9,30.51,NNW,338,0.0,0.0,85,0.00,,,0.00,VWS V14.01,2013-11-12 11:01:00,
2013-11-12 06:07:00,24.7,20.8,30.51,NNW,338,0.0,0.0,85,0.00,,,0.00,VWS V14.01,2013-11-12 11:07:00,
2013-11-12 06:15:00,24.4,20.5,30.52,North,11,0.0,0.0,85,0.00,,,0.00,VWS V14.01,2013-11-12 11:15:00,
2013-11-12 06:20:00,24.1,20.2,30.52,North,11,0.0,0.0,85,0.00,,,0.00,VWS V14.01,2013-11-12 11:20:00,
2013-11-12 06:25:00,23.9,20.1,30.52,North,11,0.0,0.0,85,0.00,,,0.00,VWS V14.01,2013-11-12 11:25:00,
2013-11-12 06:30:00,23.9,20.3,30.53,North,354,0.0,0.0,86,0.00,,,0.00,VWS V14.01,2013-11-12 11:30:00,
2013-11-12 06:35:00,24.0,20.4,30.53,NNW,330,0.0,0.0,86,0.00,,,0.00,VWS V14.01,2013-11-12 11:35:00,
2013-11-12 06:40:00,24.0,20.4,30.53,NW,321,0.0,0.0,86,0.00,,,0.00,VWS V14.01,2013-11-12 11:40:00,
2013-11-12 06:45:00,24.1,20.2,30.53,NW,320,0.0,0.0,85,0.00,,,0.00,VWS V14.01,2013-11-12 11:45:00,
2013-11-12 06:50:00,23.9,20.1,30.54,NW,321,0.0,0.0,85,0.00,,,0.00,VWS V14.01,2013-11-12 11:50:00,
2013-11-12 06:55:00,23.8,20.2,30.54,NW,321,0.0,0.0,86,0.00,,,0.00,VWS V14.01,2013-11-12 11:55:00,
2013-11-12 07:00:00,23.6,20.0,30.54,NW,320,0.0,0.0,86,0.00,,,0.00,weatherlink.com 1.10,2013-11-12 12:00:00,
2013-11-12 07:05:00,23.5,19.9,30.55,NW,321,0.0,0.0,86,0.00,,,0.00,VWS V14.01,2013-11-12 12:05:00,
2013-11-12 07:10:00,23.5,20.2,30.55,NW,321,0.0,0.0,87,0.00,,,0.00,VWS V14.01,2013-11-12 12:10:00,
2013-11-12 07:15:00,23.6,20.3,30.55,NW,305,0.0,0.0,87,0.00,,,0.00,VWS V14.01,2013-11-12 12:15:00,
2013-11-12 07:20:00,23.5,20.2,30.56,NW,307,0.0,0.0,87,0.00,,,0.00,VWS V14.01,2013-11-12 12:20:00,
2013-11-12 07:27:00,23.5,20.2,30.56,NW,307,0.0,0.0,87,0.00,,,0.00,VWS V14.01,2013-11-12 12:27:00,
2013-11-12 07:32:00,23.5,20.2,30.56,NW,307,0.0,0.0,87,0.00,,,0.00,VWS V14.01,2013-11-12 12:32:00,
2013-11-12 07:37:00,23.5,20.5,30.56,NNE,32,0.0,0.0,88,0.00,,,0.00,VWS V14.01,2013-11-12 12:37:00,
2013-11-12 07:42:00,23.5,20.5,30.57,NNE,31,0.0,0.0,88,0.00,,,0.00,VWS V14.01,2013-11-12 12:42:00,
2013-11-12 07:47:00,23.4,20.4,30.57,NNW,339,0.0,0.0,88,0.00,,,0.00,VWS V14.01,2013-11-12 12:47:00,
2013-11-12 07:52:00,23.5,20.5,30.57,NNW,338,0.0,0.0,88,0.00,,,0.00,VWS V14.01,2013-11-12 12:52:00,
2013-11-12 07:57:00,23.8,20.8,30.57,NW,320,0.0,0.0,88,0.00,,,0.00,VWS V14.01,2013-11-12 12:57:00,
2013-11-12 08:03:00,24.0,21.0,30.58,NW,320,0.0,0.0,88,0.00,,,0.00,VWS V14.01,2013-11-12 13:03:00,
2013-11-12 08:10:00,24.2,21.2,30.58,NW,320,0.0,0.0,88,0.00,,,0.00,VWS V14.01,2013-11-12 13:10:00,
2013-11-12 08:18:00,24.8,21.5,30.58,NNW,328,1.0,1.0,87,0.00,,,0.00,VWS V14.01,2013-11-12 13:18:00,
2013-11-12 08:26:00,25.5,21.9,30.58,WNW,300,0.0,0.0,86,0.00,,,0.00,VWS V14.01,2013-11-12 13:26:00,
2013-11-12 08:31:00,26.1,21.9,30.59,NW,326,0.0,2.0,84,0.00,,,0.00,VWS V14.01,2013-11-12 13:31:00,
2013-11-12 08:36:00,26.4,22.0,30.59,NW,306,2.0,2.0,83,0.00,,,0.00,VWS V14.01,2013-11-12 13:36:00,
2013-11-12 08:43:00,26.7,22.2,30.59,NW,307,2.0,2.0,83,0.00,,,0.00,VWS V14.01,2013-11-12 13:43:00,
2013-11-12 08:48:00,27.0,22.8,30.60,WNW,294,1.0,1.0,84,0.00,,,0.00,VWS V14.01,2013-11-12 13:48:00,
2013-11-12 08:55:00,27.5,23.0,30.60,NW,325,1.0,4.0,84,0.00,,,0.00,weatherlink.com 1.10,2013-11-12 13:55:00,
2013-11-12 09:00:00,27.8,23.9,30.60,NNW,332,0.0,3.0,85,0.00,,,0.00,VWS V14.01,2013-11-12 14:00:00,
2013-11-12 09:09:00,28.1,24.0,30.60,North,3,1.0,5.0,85,0.00,,,0.00,weatherlink.com 1.10,2013-11-12 14:09:00,
2013-11-12 09:15:00,28.5,24.6,30.60,WNW,298,1.0,1.0,85,0.00,,,0.00,VWS V14.01,2013-11-12 14:15:00,
2013-11-12 09:20:00,28.9,24.7,30.60,NW,311,1.0,1.0,84,0.00,,,0.00,VWS V14.01,2013-11-12 14:20:00,
2013-11-12 09:28:00,29.3,25.0,30.60,WNW,297,0.0,7.0,83,0.00,,,0.00,weatherlink.com 1.10,2013-11-12 14:28:00,
2013-11-12 09:33:00,29.6,24.5,30.60,West,271,0.0,2.0,81,0.00,,,0.00,VWS V14.01,2013-11-12 14:33:00,
2013-11-12 09:38:00,29.7,24.6,30.60,NE,37,0.0,0.0,81,0.00,,,0.00,VWS V14.01,2013-11-12 14:38:00,
2013-11-12 09:44:00,30.0,24.6,30.61,NW,309,0.0,0.0,80,0.00,,,0.00,VWS V14.01,2013-11-12 14:44:00,
2013-11-12 09:49:00,30.2,24.2,30.61,NNE,26,2.0,6.0,78,0.00,,,0.00,VWS V14.01,2013-11-12 14:49:00,
2013-11-12 09:55:00,30.3,24.0,30.61,NNE,19,0.0,0.0,77,0.00,,,0.00,VWS V14.01,2013-11-12 14:55:00,
2013-11-12 10:00:00,30.7,24.4,30.61,ENE,67,1.0,2.0,77,0.00,,,0.00,VWS V14.01,2013-11-12 15:00:00,
2013-11-12 10:09:00,31.0,24.0,30.62,NW,310,6.0,6.0,75,0.00,,,0.00,VWS V14.01,2013-11-12 15:09:00,
2013-11-12 10:14:00,31.2,22.2,30.62,NW,323,2.0,3.0,69,0.00,,,0.00,VWS V14.01,2013-11-12 15:14:00,
2013-11-12 10:21:00,31.1,23.1,30.62,WNW,290,3.0,3.0,72,0.00,,,0.00,VWS V14.01,2013-11-12 15:21:00,
2013-11-12 10:26:00,31.3,23.3,30.62,North,356,3.0,4.0,72,0.00,,,0.00,VWS V14.01,2013-11-12 15:26:00,
2013-11-12 10:31:00,31.3,23.7,30.62,NW,322,1.0,4.0,73,0.00,,,0.00,VWS V14.01,2013-11-12 15:31:00,
2013-11-12 10:36:00,31.7,24.0,30.62,NW,319,2.0,4.0,73,0.00,,,0.00,VWS V14.01,2013-11-12 15:36:00,
2013-11-12 10:45:00,32.1,24.0,30.62,NW,325,1.0,6.0,73,0.00,,,0.00,weatherlink.com 1.10,2013-11-12 15:45:00,
2013-11-12 10:50:00,32.0,23.3,30.62,NW,308,1.0,5.0,70,0.00,,,0.00,VWS V14.01,2013-11-12 15:50:00,
2013-11-12 10:57:00,32.1,24.1,30.63,NW,326,2.0,2.0,72,0.00,,,0.00,VWS V14.01,2013-11-12 15:57:00,
2013-11-12 11:02:00,32.5,24.2,30.63,North,359,4.0,6.0,71,0.01,,,0.01,VWS V14.01,2013-11-12 16:02:00,
2013-11-12 11:07:00,32.4,23.4,30.63,North,6,1.0,8.0,69,0.01,,,0.01,VWS V14.01,2013-11-12 16:07:00,
2013-11-12 11:14:00,32.3,23.6,30.63,NE,38,1.0,1.0,70,0.00,,,0.01,VWS V14.01,2013-11-12 16:14:00,
2013-11-12 11:19:00,32.3,23.6,30.63,NNW,327,4.0,11.0,70,0.01,,,0.01,VWS V14.01,2013-11-12 16:19:00,
2013-11-12 11:27:00,32.2,22.8,30.63,NNW,335,2.0,2.0,68,0.00,,,0.01,VWS V14.01,2013-11-12 16:27:00,
2013-11-12 11:34:00,32.5,24.5,30.64,NNW,335,2.0,2.0,72,0.00,,,0.01,VWS V14.01,2013-11-12 16:34:00,
2013-11-12 11:39:00,32.6,23.9,30.63,ENE,63,2.0,7.0,70,0.01,,,0.01,VWS V14.01,2013-11-12 16:39:00,
2013-11-12 11:44:00,32.6,23.9,30.63,North,11,2.0,7.0,70,0.01,,,0.01,VWS V14.01,2013-11-12 16:44:00,
2013-11-12 11:49:00,32.7,25.3,30.63,NW,315,3.0,7.0,74,0.01,,,0.01,VWS V14.01,2013-11-12 16:49:00,
2013-11-12 11:54:00,32.6,24.6,30.63,NNW,340,2.0,4.0,72,0.01,,,0.01,VWS V14.01,2013-11-12 16:54:00,
2013-11-12 11:59:00,32.6,24.9,30.63,WNW,287,5.0,6.0,73,0.01,,,0.01,VWS V14.01,2013-11-12 16:59:00,
2013-11-12 12:04:00,32.3,25.0,30.63,NNW,343,2.0,3.0,74,0.01,,,0.01,VWS V14.01,2013-11-12 17:04:00,
2013-11-12 12:11:00,32.0,25.0,30.63,NW,323,2.0,8.0,74,0.01,,,0.01,weatherlink.com 1.10,2013-11-12 17:11:00,
2013-11-12 12:16:00,32.1,25.1,30.63,WNW,300,4.0,6.0,75,0.01,,,0.01,VWS V14.01,2013-11-12 17:16:00,
2013-11-12 12:25:00,32.1,25.0,30.63,NNW,329,4.0,7.0,74,0.00,,,0.01,weatherlink.com 1.10,2013-11-12 17:25:00,
2013-11-12 12:34:00,32.0,25.0,30.63,NNW,339,4.0,4.0,75,0.00,,,0.01,VWS V14.01,2013-11-12 17:34:00,
2013-11-12 12:39:00,32.1,25.7,30.63,NW,305,1.0,5.0,77,0.00,,,0.01,VWS V14.01,2013-11-12 17:39:00,
2013-11-12 12:44:00,32.4,26.3,30.62,WNW,287,3.0,3.0,78,0.00,,,0.01,VWS V14.01,2013-11-12 17:44:00,
2013-11-12 12:49:00,32.6,25.9,30.62,NW,319,1.0,4.0,76,0.01,,,0.02,VWS V14.01,2013-11-12 17:49:00,
2013-11-12 12:55:00,32.7,26.0,30.62,WNW,300,2.0,5.0,76,0.01,,,0.02,weatherlink.com 1.10,2013-11-12 17:55:00,
2013-11-12 13:04:00,32.4,26.0,30.62,West,271,3.0,3.0,77,0.00,,,0.02,VWS V14.01,2013-11-12 18:04:00,
2013-11-12 13:11:00,32.3,25.0,30.62,WNW,300,3.0,8.0,75,0.01,,,0.02,weatherlink.com 1.10,2013-11-12 18:11:00,
2013-11-12 13:16:00,32.5,25.8,30.62,WNW,291,2.0,6.0,76,0.01,,,0.02,VWS V14.01,2013-11-12 18:16:00,
2013-11-12 13:22:00,32.7,26.0,30.62,WNW,294,3.0,3.0,76,0.00,,,0.02,VWS V14.01,2013-11-12 18:22:00,
2013-11-12 13:28:00,32.7,25.0,30.62,WNW,291,5.0,8.0,74,0.01,,,0.02,weatherlink.com 1.10,2013-11-12 18:28:00,
2013-11-12 13:34:00,32.7,25.7,30.62,NNW,332,2.0,2.0,75,0.00,,,0.02,VWS V14.01,2013-11-12 18:34:00,
2013-11-12 13:39:00,32.7,25.7,30.62,NW,307,2.0,7.0,75,0.01,,,0.02,VWS V14.01,2013-11-12 18:39:00,
2013-11-12 13:44:00,32.8,26.1,30.62,NNW,332,1.0,7.0,76,0.01,,,0.02,VWS V14.01,2013-11-12 18:44:00,
2013-11-12 13:49:00,32.7,26.3,30.62,NNW,333,2.0,8.0,77,0.01,,,0.02,VWS V14.01,2013-11-12 18:49:00,
2013-11-12 13:54:00,32.7,26.3,30.62,WNW,292,4.0,8.0,77,0.01,,,0.02,VWS V14.01,2013-11-12 18:54:00,
2013-11-12 13:59:00,32.7,26.3,30.62,NW,304,2.0,4.0,77,0.00,,,0.02,VWS V14.01,2013-11-12 18:59:00,
2013-11-12 14:00:00,32.7,26.3,30.62,NW,321,2.0,8.0,77,0.01,,,0.02,VWS V14.01,2013-11-12 19:00:00,
2013-11-12 14:04:00,32.7,26.6,30.62,North,354,2.0,6.0,78,0.00,,,0.02,VWS V14.01,2013-11-12 19:04:00,
2013-11-12 14:09:00,32.6,26.2,30.62,NW,311,2.0,7.0,77,0.00,,,0.02,VWS V14.01,2013-11-12 19:09:00,
2013-11-12 14:16:00,32.9,26.5,30.62,WNW,295,4.0,4.0,77,0.00,,,0.02,VWS V14.01,2013-11-12 19:16:00,
2013-11-12 14:29:00,32.5,26.7,30.62,WNW,287,4.0,4.0,79,0.00,,,0.02,VWS V14.01,2013-11-12 19:29:00,
2013-11-12 14:34:00,32.4,26.6,30.62,WNW,297,6.0,8.0,79,0.00,,,0.02,VWS V14.01,2013-11-12 19:34:00,
2013-11-12 14:39:00,32.2,26.7,30.62,NNW,340,7.0,9.0,80,0.00,,,0.02,VWS V14.01,2013-11-12 19:39:00,
2013-11-12 14:44:00,32.4,26.9,30.62,WNW,289,5.0,9.0,80,0.00,,,0.02,VWS V14.01,2013-11-12 19:44:00,
2013-11-12 14:49:00,32.8,27.3,30.62,West,266,4.0,9.0,80,0.00,,,0.02,VWS V14.01,2013-11-12 19:49:00,
2013-11-12 14:54:00,33.1,27.6,30.62,WNW,294,0.0,9.0,80,0.00,,,0.02,VWS V14.01,2013-11-12 19:54:00,
2013-11-12 14:59:00,33.2,27.7,30.62,WNW,297,5.0,8.0,80,0.00,,,0.02,VWS V14.01,2013-11-12 19:59:00,
2013-11-12 15:00:00,33.2,27.7,30.62,NW,316,6.0,9.0,80,0.00,,,0.02,VWS V14.01,2013-11-12 20:00:00,
2013-11-12 15:04:00,32.7,27.2,30.62,WNW,293,4.0,8.0,80,0.00,,,0.02,VWS V14.01,2013-11-12 20:04:00,
2013-11-12 15:09:00,32.3,26.8,30.63,WSW,252,4.0,13.0,80,0.00,,,0.02,VWS V14.01,2013-11-12 20:09:00,
2013-11-12 15:14:00,32.1,26.6,30.63,NW,312,5.0,13.0,80,0.00,,,0.02,VWS V14.01,2013-11-12 20:14:00,
2013-11-12 15:19:00,31.9,26.4,30.63,WNW,297,2.0,13.0,80,0.00,,,0.02,VWS V14.01,2013-11-12 20:19:00,
2013-11-12 15:24:00,32.0,26.8,30.63,NW,305,1.0,13.0,81,0.00,,,0.02,VWS V14.01,2013-11-12 20:24:00,
2013-11-12 15:29:00,32.0,26.8,30.63,NW,320,4.0,6.0,81,0.00,,,0.02,VWS V14.01,2013-11-12 20:29:00,
2013-11-12 15:30:00,32.0,26.8,30.63,West,267,5.0,13.0,81,0.00,,,0.02,VWS V14.01,2013-11-12 20:30:00,
2013-11-12 15:34:00,32.0,26.8,30.63,WNW,285,2.0,8.0,81,0.00,,,0.02,VWS V14.01,2013-11-12 20:34:00,
2013-11-12 15:39:00,32.0,26.8,30.63,NW,304,2.0,8.0,81,0.00,,,0.02,VWS V14.01,2013-11-12 20:39:00,
2013-11-12 15:44:00,31.9,26.7,30.63,NW,320,5.0,8.0,81,0.00,,,0.02,VWS V14.01,2013-11-12 20:44:00,
2013-11-12 15:49:00,31.9,26.7,30.63,West,263,5.0,8.0,81,0.00,,,0.02,VWS V14.01,2013-11-12 20:49:00,
2013-11-12 15:54:00,31.8,26.6,30.63,NW,304,6.0,9.0,81,0.00,,,0.02,VWS V14.01,2013-11-12 20:54:00,
2013-11-12 15:59:00,31.8,26.6,30.63,NNW,335,5.0,6.0,81,0.00,,,0.02,VWS V14.01,2013-11-12 20:59:00,
2013-11-12 16:00:00,31.8,26.6,30.63,WNW,297,4.0,9.0,81,0.00,,,0.02,VWS V14.01,2013-11-12 21:00:00,
2013-11-12 16:04:00,31.8,26.4,30.63,NW,318,4.0,6.0,80,0.00,,,0.02,VWS V14.01,2013-11-12 21:04:00,
2013-11-12 16:09:00,31.8,26.0,30.63,WNW,298,7.0,8.0,79,0.00,,,0.02,VWS V14.01,2013-11-12 21:09:00,
2013-11-12 16:14:00,31.8,26.0,30.63,NW,315,3.0,8.0,79,0.00,,,0.02,VWS V14.01,2013-11-12 21:14:00,
2013-11-12 16:19:00,31.8,26.0,30.64,WNW,300,3.0,8.0,79,0.00,,,0.02,VWS V14.01,2013-11-12 21:19:00,
2013-11-12 16:24:00,31.8,26.4,30.64,NW,305,3.0,8.0,80,0.00,,,0.02,VWS V14.01,2013-11-12 21:24:00,
2013-11-12 16:29:00,31.9,26.4,30.64,NW,309,2.0,4.0,80,0.00,,,0.02,VWS V14.01,2013-11-12 21:29:00,
2013-11-12 16:30:00,31.8,26.3,30.64,WNW,285,3.0,8.0,80,0.00,,,0.02,VWS V14.01,2013-11-12 21:30:00,
2013-11-12 16:34:00,31.9,26.4,30.64,WNW,297,5.0,9.0,80,0.00,,,0.02,VWS V14.01,2013-11-12 21:34:00,
2013-11-12 16:39:00,31.8,25.7,30.64,NNW,338,6.0,9.0,78,0.00,,,0.02,VWS V14.01,2013-11-12 21:39:00,
2013-11-12 16:44:00,31.7,25.6,30.64,WNW,294,4.0,9.0,78,0.00,,,0.02,VWS V14.01,2013-11-12 21:44:00,
2013-11-12 16:49:00,31.5,25.8,30.64,WNW,283,3.0,9.0,79,0.00,,,0.02,VWS V14.01,2013-11-12 21:49:00,
2013-11-12 16:54:00,31.3,25.6,30.64,NW,314,1.0,9.0,79,0.00,,,0.02,VWS V14.01,2013-11-12 21:54:00,
2013-11-12 16:59:00,31.2,25.8,30.64,West,278,0.0,3.0,80,0.00,,,0.02,VWS V14.01,2013-11-12 21:59:00,
2013-11-12 17:00:00,31.3,25.6,30.64,WNW,294,0.0,9.0,79,0.00,,,0.02,VWS V14.01,2013-11-12 22:00:00,
2013-11-12 17:06:00,31.0,25.6,30.64,West,281,2.0,2.0,80,0.00,,,0.02,VWS V14.01,2013-11-12 22:06:00,
2013-11-12 17:11:00,31.0,26.0,30.63,WNW,283,0.0,5.0,80,0.00,,,0.02,weatherlink.com 1.10,2013-11-12 22:11:00,
2013-11-12 17:17:00,31.0,25.9,30.63,NW,310,0.0,0.0,81,0.00,,,0.02,VWS V14.01,2013-11-12 22:17:00,
2013-11-12 17:22:00,31.1,26.0,30.63,WNW,285,1.0,1.0,81,0.00,,,0.02,VWS V14.01,2013-11-12 22:22:00,
2013-11-12 17:30:00,31.1,26.0,30.63,WNW,297,1.0,1.0,81,0.00,,,0.02,VWS V14.01,2013-11-12 22:30:00,
2013-11-12 17:36:00,31.0,25.9,30.63,WNW,285,1.0,1.0,81,0.00,,,0.02,VWS V14.01,2013-11-12 22:36:00,
2013-11-12 17:41:00,30.9,25.8,30.63,WNW,284,0.0,3.0,81,0.00,,,0.02,VWS V14.01,2013-11-12 22:41:00,
2013-11-12 17:46:00,30.7,25.9,30.62,North,357,0.0,3.0,82,0.00,,,0.02,VWS V14.01,2013-11-12 22:46:00,
2013-11-12 17:51:00,30.5,25.7,30.62,NW,307,0.0,3.0,82,0.00,,,0.02,VWS V14.01,2013-11-12 22:51:00,
2013-11-12 17:56:00,30.3,25.5,30.62,West,271,3.0,3.0,82,0.00,,,0.02,VWS V14.01,2013-11-12 22:56:00,
2013-11-12 18:01:00,30.2,25.1,30.62,WNW,297,0.0,4.0,81,0.00,,,0.02,VWS V14.01,2013-11-12 23:01:00,
2013-11-12 18:06:00,30.2,25.1,30.63,NW,322,0.0,4.0,81,0.00,,,0.02,VWS V14.01,2013-11-12 23:06:00,
2013-11-12 18:11:00,30.2,25.1,30.63,NW,311,1.0,4.0,81,0.00,,,0.02,VWS V14.01,2013-11-12 23:11:00,
2013-11-12 18:16:00,30.2,25.1,30.63,NW,319,0.0,4.0,81,0.00,,,0.02,VWS V14.01,2013-11-12 23:16:00,
2013-11-12 18:21:00,30.0,25.2,30.63,WNW,291,1.0,4.0,82,0.00,,,0.02,VWS V14.01,2013-11-12 23:21:00,
2013-11-12 18:26:00,29.9,25.1,30.62,NW,304,0.0,0.0,82,0.00,,,0.02,VWS V14.01,2013-11-12 23:26:00,
2013-11-12 18:31:00,29.7,25.2,30.63,West,274,0.0,1.0,83,0.00,,,0.02,VWS V14.01,2013-11-12 23:31:00,
2013-11-12 18:36:00,29.5,25.0,30.63,WNW,300,0.0,1.0,83,0.00,,,0.02,VWS V14.01,2013-11-12 23:36:00,
2013-11-12 18:41:00,29.3,24.8,30.63,West,280,0.0,1.0,83,0.00,,,0.02,VWS V14.01,2013-11-12 23:41:00,
2013-11-12 18:46:00,29.2,24.7,30.63,WNW,286,0.0,1.0,83,0.00,,,0.02,VWS V14.01,2013-11-12 23:46:00,
2013-11-12 18:51:00,29.0,24.8,30.63,WNW,297,1.0,1.0,84,0.00,,,0.02,VWS V14.01,2013-11-12 23:51:00,
2013-11-12 18:56:00,28.9,24.7,30.63,NNW,342,0.0,2.0,84,0.00,,,0.02,VWS V14.01,2013-11-12 23:56:00,
2013-11-12 19:01:00,28.8,24.6,30.63,WNW,294,2.0,4.0,84,0.00,,,0.02,VWS V14.01,2013-11-13 00:01:00,
2013-11-12 19:06:00,28.8,24.3,30.63,WNW,289,1.0,4.0,83,0.00,,,0.02,VWS V14.01,2013-11-13 00:06:00,
2013-11-12 19:11:00,28.7,24.2,30.64,NW,308,0.0,4.0,83,0.00,,,0.02,VWS V14.01,2013-11-13 00:11:00,
2013-11-12 19:16:00,28.6,24.1,30.64,WNW,285,0.0,4.0,83,0.00,,,0.02,VWS V14.01,2013-11-13 00:16:00,
2013-11-12 19:21:00,28.5,24.0,30.64,NW,317,2.0,4.0,83,0.00,,,0.02,VWS V14.01,2013-11-13 00:21:00,
2013-11-12 19:26:00,28.3,23.8,30.64,WNW,299,1.0,2.0,83,0.00,,,0.02,VWS V14.01,2013-11-13 00:26:00,
2013-11-12 19:31:00,28.2,23.7,30.63,WNW,287,2.0,4.0,83,0.00,,,0.02,VWS V14.01,2013-11-13 00:31:00,
2013-11-12 19:36:00,28.2,23.7,30.64,NW,317,0.0,4.0,83,0.00,,,0.02,VWS V14.01,2013-11-13 00:36:00,
2013-11-12 19:41:00,28.0,23.5,30.63,NW,311,0.0,4.0,83,0.00,,,0.02,VWS V14.01,2013-11-13 00:41:00,
2013-11-12 19:46:00,28.0,23.5,30.64,WNW,289,0.0,4.0,83,0.00,,,0.02,VWS V14.01,2013-11-13 00:46:00,
2013-11-12 19:51:00,27.9,23.4,30.64,WNW,289,0.0,4.0,83,0.00,,,0.02,VWS V14.01,2013-11-13 00:51:00,
2013-11-12 19:56:00,27.8,23.6,30.64,NW,305,0.0,1.0,84,0.00,,,0.02,VWS V14.01,2013-11-13 00:56:00,
2013-11-12 20:01:00,27.6,23.4,30.64,West,271,1.0,2.0,84,0.00,,,0.02,VWS V14.01,2013-11-13 01:01:00,
2013-11-12 20:06:00,27.5,23.3,30.65,NW,305,0.0,2.0,84,0.00,,,0.02,VWS V14.01,2013-11-13 01:06:00,
2013-11-12 20:11:00,27.4,23.5,30.64,WNW,290,0.0,2.0,85,0.00,,,0.02,VWS V14.01,2013-11-13 01:11:00,
2013-11-12 20:16:00,27.3,23.4,30.64,WNW,291,0.0,2.0,85,0.00,,,0.02,VWS V14.01,2013-11-13 01:16:00,
2013-11-12 20:21:00,27.1,23.5,30.64,NW,304,0.0,2.0,86,0.00,,,0.02,VWS V14.01,2013-11-13 01:21:00,
2013-11-12 20:26:00,27.0,23.4,30.64,NW,305,0.0,0.0,86,0.00,,,0.02,VWS V14.01,2013-11-13 01:26:00,
2013-11-12 20:31:00,27.0,23.6,30.64,West,274,0.0,1.0,87,0.00,,,0.02,VWS V14.01,2013-11-13 01:31:00,
2013-11-12 20:36:00,26.8,23.5,30.64,West,274,0.0,1.0,87,0.00,,,0.02,VWS V14.01,2013-11-13 01:36:00,
2013-11-12 20:41:00,26.7,23.4,30.64,West,274,0.0,1.0,87,0.00,,,0.02,VWS V14.01,2013-11-13 01:41:00,
2013-11-12 20:46:00,26.6,23.5,30.65,WNW,287,0.0,1.0,88,0.00,,,0.02,VWS V14.01,2013-11-13 01:46:00,
2013-11-12 20:51:00,26.6,23.5,30.65,NW,305,0.0,2.0,88,0.00,,,0.02,VWS V14.01,2013-11-13 01:51:00,
2013-11-12 20:56:00,26.5,23.4,30.65,WNW,287,0.0,0.0,88,0.00,,,0.02,VWS V14.01,2013-11-13 01:56:00,
2013-11-12 21:01:00,26.6,23.3,30.65,West,280,1.0,3.0,87,0.00,,,0.02,VWS V14.01,2013-11-13 02:01:00,
2013-11-12 21:06:00,26.8,23.2,30.65,WNW,298,0.0,3.0,86,0.00,,,0.02,VWS V14.01,2013-11-13 02:06:00,
2013-11-12 21:11:00,26.7,23.1,30.65,NW,311,0.0,3.0,86,0.00,,,0.02,VWS V14.01,2013-11-13 02:11:00,
2013-11-12 21:16:00,26.7,22.8,30.65,West,272,0.0,4.0,85,0.00,,,0.02,VWS V14.01,2013-11-13 02:16:00,
2013-11-12 21:21:00,26.7,22.8,30.65,WNW,284,0.0,4.0,85,0.00,,,0.02,VWS V14.01,2013-11-13 02:21:00,
2013-11-12 21:26:00,26.5,22.6,30.65,WNW,285,0.0,0.0,85,0.00,,,0.02,VWS V14.01,2013-11-13 02:26:00,
2013-11-12 21:31:00,26.4,22.5,30.65,WNW,285,0.0,0.0,85,0.00,,,0.02,VWS V14.01,2013-11-13 02:31:00,
2013-11-12 21:36:00,26.1,22.2,30.65,WNW,283,0.0,0.0,85,0.00,,,0.02,VWS V14.01,2013-11-13 02:36:00,
2013-11-12 21:41:00,25.9,22.0,30.65,WNW,297,0.0,0.0,85,0.00,,,0.02,VWS V14.01,2013-11-13 02:41:00,
2013-11-12 21:46:00,25.9,22.0,30.65,WNW,288,0.0,1.0,85,0.00,,,0.02,VWS V14.01,2013-11-13 02:46:00,
2013-11-12 21:51:00,26.0,21.8,30.65,West,279,0.0,1.0,84,0.00,,,0.02,VWS V14.01,2013-11-13 02:51:00,
2013-11-12 21:56:00,25.9,21.7,30.65,West,280,0.0,0.0,84,0.00,,,0.02,VWS V14.01,2013-11-13 02:56:00,
2013-11-12 22:01:00,25.8,21.6,30.65,West,280,0.0,0.0,84,0.00,,,0.02,VWS V14.01,2013-11-13 03:01:00,
2013-11-12 22:06:00,25.5,21.6,30.65,West,280,0.0,0.0,85,0.00,,,0.02,VWS V14.01,2013-11-13 03:06:00,
2013-11-12 22:11:00,25.4,21.5,30.65,West,273,0.0,2.0,85,0.00,,,0.02,VWS V14.01,2013-11-13 03:11:00,
2013-11-12 22:16:00,25.4,21.5,30.65,WNW,301,0.0,2.0,85,0.00,,,0.02,VWS V14.01,2013-11-13 03:16:00,
2013-11-12 22:21:00,25.4,21.5,30.65,WSW,255,0.0,2.0,85,0.00,,,0.02,VWS V14.01,2013-11-13 03:21:00,
2013-11-12 22:25:00,25.3,21.4,30.66,WSW,255,0.0,0.0,85,0.00,,,0.02,VWS V14.01,2013-11-13 03:25:00,
2013-11-12 22:30:00,25.2,21.3,30.65,WNW,287,0.0,0.0,85,0.00,,,0.02,VWS V14.01,2013-11-13 03:30:00,
2013-11-12 22:35:00,25.2,21.3,30.65,WNW,282,0.0,0.0,85,0.00,,,0.02,VWS V14.01,2013-11-13 03:35:00,
2013-11-12 22:40:00,25.1,21.2,30.65,West,269,0.0,1.0,85,0.00,,,0.02,VWS V14.01,2013-11-13 03:40:00,
2013-11-12 22:45:00,25.1,21.2,30.65,West,271,0.0,1.0,85,0.00,,,0.02,VWS V14.01,2013-11-13 03:45:00,
2013-11-12 22:50:00,25.0,21.1,30.64,WNW,284,0.0,1.0,85,0.00,,,0.02,VWS V14.01,2013-11-13 03:50:00,
2013-11-12 22:55:00,24.8,20.9,30.64,WNW,294,0.0,1.0,85,0.00,,,0.02,VWS V14.01,2013-11-13 03:55:00,
2013-11-12 23:00:00,24.7,21.1,30.64,WSW,253,0.0,1.0,86,0.00,,,0.02,VWS V14.01,2013-11-13 04:00:00,
2013-11-12 23:05:00,24.7,21.1,30.64,WSW,241,0.0,1.0,86,0.00,,,0.02,VWS V14.01,2013-11-13 04:05:00,
2013-11-12 23:10:00,24.6,21.0,30.64,SW,232,0.0,1.0,86,0.00,,,0.02,VWS V14.01,2013-11-13 04:10:00,
2013-11-12 23:15:00,24.6,21.0,30.64,WSW,242,0.0,1.0,86,0.00,,,0.02,VWS V14.01,2013-11-13 04:15:00,
2013-11-12 23:20:00,24.3,20.7,30.63,WSW,256,0.0,1.0,86,0.00,,,0.02,VWS V14.01,2013-11-13 04:20:00,
2013-11-12 23:25:00,24.1,20.5,30.64,WSW,256,0.0,0.0,86,0.00,,,0.02,VWS V14.01,2013-11-13 04:25:00,
2013-11-12 23:30:00,23.8,20.2,30.63,WSW,256,0.0,0.0,86,0.00,,,0.02,VWS V14.01,2013-11-13 04:30:00,
2013-11-12 23:35:00,23.6,20.3,30.64,WSW,255,0.0,0.0,87,0.00,,,0.02,VWS V14.01,2013-11-13 04:35:00,
2013-11-12 23:40:00,23.4,20.1,30.64,WSW,256,0.0,0.0,87,0.00,,,0.02,VWS V14.01,2013-11-13 04:40:00,
2013-11-12 23:45:00,23.3,20.3,30.63,WSW,256,0.0,0.0,88,0.00,,,0.02,VWS V14.01,2013-11-13 04:45:00,
2013-11-12 23:50:00,23.3,20.3,30.63,WSW,256,0.0,0.0,88,0.00,,,0.02,VWS V14.01,2013-11-13 04:50:00,
2013-11-12 23:55:00,23.2,20.2,30.63,WSW,256,0.0,0.0,88,0.00,,,0.00,VWS V14.01,2013-11-13 04:55:00,